TimeEST,TemperatureF,Dew PointF,Humidity,Sea Level PressureIn,VisibilityMPH,Wind Direction,Wind SpeedMPH,Gust SpeedMPH,PrecipitationIn,Events,Conditions,WindDirDegrees,DateUTC
12:53 AM,64.9,64.0,97,29.85,-9999.0,SSW,3.5,-,N/A,,Unknown,210,2012-12-11 05:53:00
1:53 AM,66.9,66.0,97,29.84,-9999.0,Calm,Calm,-,N/A,,Unknown,0,2012-12-11 06:53:00
2:53 AM,68.0,66.9,96,29.84,-9999.0,SSW,5.8,-,N/A,,Unknown,210,2012-12-11 07:53:00
3:53 AM,69.1,68.0,96,29.86,-9999.0,SW,6.9,-,N/A,,Unknown,230,2012-12-11 08:53:00
4:53 AM,69.1,68.0,96,29.87,-9999.0,West,6.9,-,N/A,,Unknown,260,2012-12-11 09:53:00
5:53 AM,68.0,66.9,96,29.88,-9999.0,WSW,4.6,-,N/A,,Unknown,240,2012-12-11 10:53:00
6:53 AM,66.9,66.0,97,29.90,-9999.0,Calm,Calm,-,N/A,,Unknown,0,2012-12-11 11:53:00
7:53 AM,66.9,66.0,97,29.92,-9999.0,Calm,Calm,-,N/A,,Unknown,0,2012-12-11 12:53:00
8:53 AM,68.0,66.0,93,29.94,-9999.0,Calm,Calm,-,N/A,,Unknown,0,2012-12-11 13:53:00
9:53 AM,70.0,64.9,84,29.96,-9999.0,Calm,Calm,-,N/A,,Unknown,0,2012-12-11 14:53:00
10:53 AM,72.0,64.0,76,29.98,-9999.0,Calm,Calm,-,N/A,,Unknown,0,2012-12-11 15:53:00
11:53 AM,72.0,64.0,76,29.97,-9999.0,SW,3.5,-,N/A,,Unknown,220,2012-12-11 16:53:00
12:53 PM,73.0,64.0,73,29.94,-9999.0,SW,6.9,-,N/A,,Unknown,230,2012-12-11 17:53:00
1:53 PM,73.0,64.0,73,29.94,-9999.0,West,4.6,-,N/A,,Unknown,260,2012-12-11 18:53:00
2:53 PM,69.1,62.1,78,29.96,-9999.0,NNW,8.1,-,N/A,,Unknown,330,2012-12-11 19:53:00
3:53 PM,66.9,59.0,76,29.97,-9999.0,NNW,8.1,-,N/A,,Unknown,330,2012-12-11 20:53:00
4:53 PM,64.0,59.0,84,29.98,-9999.0,North,9.2,-,N/A,,Unknown,350,2012-12-11 21:53:00
5:53 PM,63.0,57.9,84,29.99,-9999.0,North,5.8,-,N/A,,Unknown,360,2012-12-11 22:53:00
6:53 PM,60.1,57.0,90,29.99,-9999.0,NNE,4.6,-,N/A,,Unknown,20,2012-12-11 23:53:00
7:53 PM,60.1,57.0,90,30.02,-9999.0,NNE,4.6,-,N/A,,Unknown,20,2012-12-12 00:53:00
8:53 PM,60.1,57.0,90,30.01,-9999.0,Variable,3.5,-,N/A,,Unknown,0,2012-12-12 01:53:00
9:53 PM,60.1,57.0,90,30.03,-9999.0,NNE,4.6,-,N/A,,Unknown,30,2012-12-12 02:53:00
10:53 PM,59.0,55.0,87,30.07,-9999.0,NNW,9.2,-,N/A,,Unknown,340,2012-12-12 03:53:00
11:53 PM,57.9,54.0,87,30.08,-9999.0,North,9.2,-,N/A,,Unknown,360,2012-12-12 04:53:00